User: anonymous   Login
Location: Unspecified
(0.0000°N, 0.0000°E)
Time: 21:12:24
(UTC+01:00)
Language:

NATO 3D Rocket - Orbit

View from above orbital plane
View from above orbital plane
View from above satellite
View from above satellite

Ground track
Ground track

The orbit data is extracted from the following two-line orbital elements,

1 15392U 84115B   14348.92827178  .00000416  00000-0  24979-3 0  2216
2 15392 021.4887 173.2246 1034627 104.3998 033.3174 12.45449710369819
Epoch (UTC): 14 December 2014 22:16:42
Eccentricity: 0.1034627
inclination: 21.4887°
perigee height: 670 km
apogee height: 2297 km
right ascension of ascending node: 173.2246°
argument of perigee: 104.3998°
revolutions per day: 12.45449710
mean anomaly at epoch: 33.3174°
orbit number at epoch: 36981

The dashed part of the orbit path shows where the satellite is in the earth's shadow,  

DLR